Omak, WA

6:58 AM PST on January 21, 2018 (GMT -0800)
Omak

Weather History for KOMK - April, 2014

Change the Weather History Date:

Sunday, April 27, 2014

  Actual Average Record
Temperature  
Mean Temperature 47 °F 52 °F  
Max Temperature 60 °F 67 °F 83 °F (1980)
Min Temperature 33 °F 39 °F 25 °F (1955)
Degree Days  
Heating Degree Days 18 13  
Month to date heating degree days 420 414  
Since 1 July heating degree days 6160 6004  
Cooling Degree Days 0 0  
Month to date cooling degree days 0 0  
Year to date cooling degree days 0 0  
Moisture  
Dew Point 33 °F    
Average Humidity 54    
Maximum Humidity 76    
Minimum Humidity 31    
Precipitation  
Precipitation T in 0.04 in 1.25 in (1953)
Month to date precipitation 1.18 0.94  
Year to date precipitation 4.16 5.43  
Sea Level Pressure  
Sea Level Pressure 29.73 in    
Wind  
Wind Speed 9 mph (SSE)    
Max Wind Speed 21 mph    
Max Gust Speed 29 mph    
Visibility 10 miles    
Events Rain    
T = Trace of Precipitation, MM = Missing Value Source: NWS Daily Summary

Daily Weather History Graph

Daily Weather History Graph

Search for Another Location

Airport or City:

Trip Planner

Search our weather history database for the weather conditions in past years. The results will help you decide how hot, cold, wet, or windy it might be!

Date:

Astronomy

Apr. 27, 2014 Rise Set
Actual Time 5:45 AM PDT 8:06 PM PDT
Civil Twilight 5:10 AM PDT 8:41 PM PDT
Nautical Twilight 4:27 AM PDT 9:25 PM PDT
Astronomical Twilight 3:38 AM PDT 10:15 PM PDT
Moon 4:58 AM PDT (4/27) 6:39 PM PDT (4/27)
Length of Visible Light 15h 30m
Length of Day
14h 21m
Waning Crescent, 3% of the Moon is Illuminated
Apr 27
Waning Crescent
Apr 28
New
May 6
First Quarter
May 14
Full
May 21
Last Quarter

Hourly Weather History & Observations

Time (PDT) Temp. Windchill Dew Point Humidity Pressure Visibility Wind Dir Wind Speed Gust Speed Precip Events Conditions
12:53 AM 39.0 °F 36.8 °F 30.0 °F 70% 29.64 in 10.0 mi SSW 3.5 mph - N/A   Overcast
2:53 AM 46.0 °F 41.9 °F 26.1 °F 46% 29.64 in 10.0 mi SSE 8.1 mph - N/A   Overcast
3:53 AM 46.0 °F 41.4 °F 32.0 °F 58% 29.64 in 10.0 mi SSE 9.2 mph - N/A   Overcast
4:53 AM 44.1 °F 38.6 °F 35.1 °F 71% 29.64 in 10.0 mi SSE 10.4 mph - 0.00 in   Clear
5:53 AM 44.1 °F 39.0 °F 36.0 °F 73% 29.64 in 10.0 mi South 9.2 mph - N/A   Mostly Cloudy
6:53 AM 45.0 °F 40.6 °F 37.0 °F 74% 29.66 in 10.0 mi South 8.1 mph - N/A   Mostly Cloudy
7:53 AM 46.9 °F - 37.0 °F 68% 29.67 in 10.0 mi South 6.9 mph - N/A   Mostly Cloudy
8:35 AM 48.0 °F - 37.0 °F 66% 29.66 in 10.0 mi SSE 10.4 mph - N/A   Mostly Cloudy
8:53 AM 48.9 °F - 37.0 °F 64% 29.68 in 10.0 mi SSE 15.0 mph - N/A   Scattered Clouds
9:53 AM 52.0 °F - 36.0 °F 54% 29.68 in 10.0 mi SSE 9.2 mph - N/A   Partly Cloudy
10:53 AM 54.0 °F - 34.0 °F 47% 29.69 in 10.0 mi SE 15.0 mph - N/A   Clear
11:53 AM 55.9 °F - 30.9 °F 39% 29.69 in 10.0 mi ESE 15.0 mph 21.9 mph N/A   Mostly Cloudy
1:53 PM 54.0 °F - 33.1 °F 45% 29.70 in 10.0 mi North 17.3 mph 24.2 mph 0.00 in Rain Light Rain
2:53 PM 51.1 °F - 33.1 °F 50% 29.73 in 10.0 mi North 13.8 mph - 0.00 in   Mostly Cloudy
3:53 PM 52.0 °F - 30.0 °F 43% 29.74 in 10.0 mi North 12.7 mph - 0.00 in Rain Light Rain
4:53 PM 55.0 °F - 32.0 °F 42% 29.76 in 10.0 mi North 11.5 mph - 0.00 in Rain Light Rain
5:53 PM 57.0 °F - 30.0 °F 36% 29.77 in 10.0 mi North 6.9 mph - 0.00 in   Partly Cloudy
6:53 PM 54.0 °F - 28.0 °F 37% 29.80 in 10.0 mi SE 4.6 mph - N/A   Mostly Cloudy
7:53 PM 50.0 °F - 30.9 °F 48% 29.82 in 10.0 mi NNE 5.8 mph - N/A   Clear
8:53 PM 45.0 °F 40.6 °F 30.9 °F 58% 29.86 in 10.0 mi WNW 8.1 mph - N/A   Clear
9:53 PM 44.1 °F 40.1 °F 32.0 °F 63% 29.90 in 10.0 mi WNW 6.9 mph - N/A   Clear
11:53 PM 37.9 °F 35.5 °F 28.9 °F 70% 29.96 in 10.0 mi West 3.5 mph - N/A   Clear